DECAYED

OBJECT N, 43843 (Decayed)

Orbit data source: Space-Track

You're viewing an Uncataloged Satellite

Recently launched and/or uncataloged satellites may have evolving metadata. Metadata may include but not limited to: Owner, Maufacturer, Bus, Motor, and Mission.

OBJECT N, 43843 was a satellite in LEO that was launched on Fri, 07 Dec 2018 UTC launched from the Jiuquan Satellite Launch Center, China (JSC). Unknown objects in Earth's orbit typically refer to objects detected orbiting the Earth but have not yet been identified or cataloged. These objects could be anything from previously untracked satellites, spent rocket stages, debris from satellite collisions, or even natural meteoroids temporarily captured by Earth's gravity. This object's orbit decayed before it could be identified.

Not visible in the next 10 days
Identifier
43843, 2018-102N
Orbit
Decayed
Country
Flag of TBDTBD
Related business
Manufacturer
CALT
Mission
Decayed spacecraft
Bus & Motor
Unknown
Mass
1 kg wet, 1 kg dry
Launch date (UTC)
2018-12-07 (7 years ago)
Launch vehicle
Unknown
Launch site
Jiuquan Satellite Launch Center, China (JSC)
Object type
Unknown
Shape & HBR
Cone, 0.1 m
Radar Cross Section
0.025 m², Medium (>0.1 m² and < 1m²)

Expand to show TLE details & history
Last TLE update: 1 year ago

TLE from 1 year ago
0 OBJECT N
1 43843U 18102N   24140.97272243  .06998283  25122-5  16865-2 0  9991
2 43843  97.4385 238.5864 0016795 268.5926  91.3443 16.29064881302051
Epoch: 2024-05-19T23:20Z
TLE epoch observation values (Epoch: 2024-05-19T23:20:43.217Z)
Latitude
-0.00011°
Longitude
10.28997°
Altitude
198.567 km
Speed
7.787 km/s
True Right ascension
15h 54m 20s
True Declination
0° 00' 00"
Sunlit
Object was in full shadow at epoch
Visualization orbit readout
Latitude
Unknown
Longitude
Unknown
Altitude
Unknown
Speed
Unknown
Apparent Right ascension
Unknown
Apparent Declination
Unknown
Sunlit
N/A
Visualization observer readout
Local Sidereal Time
09:26:50
Azimuth
Unknown
Elevation
Unknown
Doppler factor
Unknown
Orbital elements
Apogee altitude
202.912 km
Perigee altitude
180.843 km
Semi-major axis
6,570.015 km
Eccentricity
0.00168
Inclination
97.4385°
RAAN
238.5864°
Arg. of periapsis
268.5926°
True anomaly
91.53669°
Mean anomaly
91.3443°
Eccentric anomaly
91.4405°
Mean motion
4.07562 °/min
Orbital period
88.33 mins
BSTAR
0.0016865
Loading maneuver chart data...
Computing Atmospheric mass density...
Loading historical data...
Loading historical data...
Loading historical data...
Loading historical data...
Loading historical data...
Loading historical data...
Loading historical data...

Documentation

Showing up to 5 results
|